Weather History for KBPC - February, 2013

Change the Weather History Date:

Wednesday, February 27, 2013

  Actual Average (KBGD) Record (KBGD)
Temperature  
Mean Temperature 35 °F 44 °F  
Max Temperature 44 °F 57 °F 81 °F (2006)
Min Temperature 26 °F 32 °F 6 °F (1962)
Degree Days  
Heating Degree Days 30 21  
Month to date heating degree days 623  
Since 1 July heating degree days 2975  
Cooling Degree Days 0 0  
Month to date cooling degree days 0  
Year to date cooling degree days 0  
Moisture  
Dew Point 28 °F    
Average Humidity 77    
Maximum Humidity 100    
Minimum Humidity 53    
Precipitation  
Precipitation 0.00 in 0.02 in 0.76 in (1966)
Month to date precipitation 0.60  
Year to date precipitation 1.19  
Snow  
Snow 0.00 in - 1.00 in (1966)
Month to date snowfall  
Since 1 July snowfall  
Snow Depth -    
Sea Level Pressure  
Sea Level Pressure 30.15 in    
Wind  
Wind Speed 9 mph (NW)    
Max Wind Speed 21 mph    
Max Gust Speed 26 mph    
Visibility 10 miles    
Events Snow    
T = Trace of Precipitation, MM = Missing Value Source: NWS Daily Summary

Daily Weather History Graph

Daily Weather History Graph

Search for Another Location

Airport or City:

Trip Planner

Search our weather history database for the weather conditions in past years. The results will help you decide how hot, cold, wet, or windy it might be!

Date:

Astronomy

Feb. 27, 2013 Rise Set
Actual Time 7:16 AM CST 6:37 PM CST
Civil Twilight 6:50 AM CST 7:03 PM CST
Nautical Twilight 6:21 AM CST 7:33 PM CST
Astronomical Twilight 5:51 AM CST 8:02 PM CST
Moon 8:54 PM CST (2/27) 7:58 AM CST (2/27)
Length of Visible Light 12h 12m
Length of Day
11h 21m
Waning Gibbous, 96% of the Moon is Illuminated
Feb 27
Waning Gibbous
Mar 4
Last Quarter
Mar 11
New
Mar 19
First Quarter
Mar 27
Full

Hourly Weather History & Observations

Time (CST) Temp. Windchill Dew Point Humidity Pressure Visibility Wind Dir Wind Speed Gust Speed Precip Events Conditions
12:15 AM 28.4 °F 23.3 °F 24.8 °F 86% 29.95 in 10.0 mi SSW 4.6 mph - N/A   Overcast
12:35 AM 30.2 °F 25.4 °F 24.8 °F 80% 29.95 in 10.0 mi SW 4.6 mph - N/A   Overcast
1:15 AM 32.0 °F 25.6 °F 26.6 °F 80% 29.96 in 10.0 mi SW 6.9 mph - N/A   Overcast
1:35 AM 32.0 °F 26.4 °F 26.6 °F 80% 29.97 in 10.0 mi WSW 5.8 mph - N/A   Overcast
1:55 AM 32.0 °F 26.4 °F 28.4 °F 87% 29.98 in 7.0 mi West 5.8 mph - N/A Snow Light Snow
2:15 AM 32.0 °F 25.6 °F 32.0 °F 100% 29.99 in 3.0 mi WNW 6.9 mph - N/A Snow Light Snow
2:35 AM 32.0 °F 26.4 °F 32.0 °F 100% 29.99 in 7.0 mi NW 5.8 mph - N/A Snow Light Snow
2:55 AM 32.0 °F 25.6 °F 32.0 °F 100% 30.00 in 10.0 mi NNW 6.9 mph - N/A   Mostly Cloudy
3:15 AM 32.0 °F 22.5 °F 32.0 °F 100% 30.00 in 10.0 mi NNW 12.7 mph 16.1 mph N/A   Scattered Clouds
3:35 AM 32.0 °F 21.2 °F 30.2 °F 93% 30.01 in 10.0 mi North 16.1 mph 21.9 mph N/A   Clear
3:55 AM 30.2 °F 20.2 °F 26.6 °F 86% 30.02 in 10.0 mi North 12.7 mph - N/A   Clear
4:15 AM 30.2 °F 21.3 °F 23.0 °F 75% 30.03 in 10.0 mi NNW 10.4 mph - N/A   Clear
4:35 AM 28.4 °F 21.2 °F 24.8 °F 86% 30.03 in 10.0 mi NNW 6.9 mph - N/A   Clear
4:55 AM 28.4 °F 22.2 °F 24.8 °F 86% 30.04 in 10.0 mi NW 5.8 mph - N/A   Clear
5:15 AM 26.6 °F 21.2 °F 23.0 °F 86% 30.05 in 10.0 mi WNW 4.6 mph - N/A   Clear
5:35 AM 26.6 °F 21.2 °F 23.0 °F 86% 30.06 in 10.0 mi West 4.6 mph - N/A   Clear
5:55 AM 26.6 °F 19.1 °F 23.0 °F 86% 30.07 in 10.0 mi West 6.9 mph - N/A   Clear
6:15 AM 26.6 °F 18.2 °F 23.0 °F 86% 30.08 in 10.0 mi WNW 8.1 mph - N/A   Clear
6:35 AM 26.6 °F 22.6 °F 23.0 °F 86% 30.09 in 10.0 mi WNW 3.5 mph - N/A   Clear
6:55 AM 26.6 °F 21.2 °F 23.0 °F 86% 30.10 in 10.0 mi NNW 4.6 mph - N/A   Clear
7:35 AM 26.6 °F 19.1 °F 23.0 °F 86% 30.11 in 10.0 mi NW 6.9 mph - N/A   Clear
7:55 AM 28.4 °F 18.5 °F 24.8 °F 86% 30.13 in 10.0 mi NW 11.5 mph - N/A   Clear
8:15 AM 30.2 °F 21.3 °F 24.8 °F 80% 30.14 in 10.0 mi NW 10.4 mph - N/A   Clear
8:35 AM 30.2 °F 21.9 °F 26.6 °F 86% 30.16 in 10.0 mi NNW 9.2 mph 16.1 mph N/A   Clear
8:55 AM 32.0 °F 22.1 °F 26.6 °F 80% 30.17 in 10.0 mi NW 13.8 mph 18.4 mph N/A   Clear
9:15 AM 33.8 °F 24.3 °F 28.4 °F 81% 30.18 in 10.0 mi NW 13.8 mph 23.0 mph N/A   Clear
9:35 AM 33.8 °F 24.8 °F 28.4 °F 81% 30.19 in 10.0 mi NW 12.7 mph 23.0 mph N/A   Clear
9:55 AM 35.6 °F 26.6 °F 28.4 °F 75% 30.19 in 10.0 mi NNW 13.8 mph 25.3 mph N/A   Clear
10:15 AM 35.6 °F 25.2 °F 30.2 °F 81% 30.20 in 10.0 mi NNW 18.4 mph 21.9 mph N/A   Clear
10:35 AM 35.6 °F 25.5 °F 30.2 °F 81% 30.21 in 10.0 mi NNW 17.3 mph 26.5 mph N/A   Clear
10:55 AM 37.4 °F 26.9 °F 30.2 °F 75% 30.21 in 10.0 mi NNW 20.7 mph 26.5 mph N/A   Clear
11:15 AM 37.4 °F 27.5 °F 30.2 °F 75% 30.22 in 10.0 mi NNW 18.4 mph - N/A   Clear
11:35 AM 37.4 °F 27.8 °F 30.2 °F 75% 30.23 in 10.0 mi NNW 17.3 mph 24.2 mph N/A   Clear
11:55 AM 39.2 °F 30.2 °F 30.2 °F 70% 30.23 in 10.0 mi NNW 17.3 mph 24.2 mph N/A   Clear
12:15 PM 41.0 °F 32.8 °F 30.2 °F 65% 30.23 in 10.0 mi NNW 16.1 mph 24.2 mph N/A   Clear
12:35 PM 41.0 °F 32.8 °F 30.2 °F 65% 30.23 in 10.0 mi NNW 16.1 mph 23.0 mph N/A   Clear
12:55 PM 41.0 °F 32.5 °F 32.0 °F 70% 30.22 in 10.0 mi NNW 17.3 mph 24.2 mph N/A   Scattered Clouds
1:15 PM 41.0 °F 31.9 °F 30.2 °F 65% 30.21 in 10.0 mi NNW 19.6 mph 24.2 mph N/A   Scattered Clouds
1:35 PM 41.0 °F 32.5 °F 30.2 °F 65% 30.21 in 10.0 mi NNW 17.3 mph 24.2 mph N/A   Clear
1:55 PM 41.0 °F 33.1 °F 30.2 °F 65% 30.20 in 10.0 mi NNW 15.0 mph 25.3 mph N/A   Scattered Clouds
2:15 PM 42.8 °F 35.4 °F 30.2 °F 61% 30.20 in 10.0 mi NNW 15.0 mph - N/A   Scattered Clouds
2:55 PM 42.8 °F 35.4 °F 30.2 °F 61% 30.20 in 10.0 mi NNW 15.0 mph - N/A   Scattered Clouds
3:15 PM 42.8 °F 36.6 °F 28.4 °F 57% 30.20 in 10.0 mi NNW 11.5 mph 21.9 mph N/A   Clear
3:35 PM 44.6 °F 37.8 °F 28.4 °F 53% 30.20 in 10.0 mi North 15.0 mph 19.6 mph N/A   Clear
3:55 PM 42.8 °F 35.1 °F 28.4 °F 57% 30.20 in 10.0 mi North 16.1 mph 20.7 mph N/A   Clear
4:15 PM 44.6 °F 38.1 °F 28.4 °F 53% 30.19 in 10.0 mi North 13.8 mph - N/A   Clear
4:35 PM 42.8 °F 35.8 °F 28.4 °F 57% 30.19 in 10.0 mi North 13.8 mph 20.7 mph N/A   Clear
4:55 PM 42.8 °F 36.6 °F 26.6 °F 53% 30.19 in 10.0 mi North 11.5 mph - N/A   Clear
5:15 PM 42.8 °F 36.6 °F 28.4 °F 57% 30.19 in 10.0 mi North 11.5 mph 17.3 mph N/A   Clear
5:35 PM 42.8 °F 38.0 °F 26.6 °F 53% 30.19 in 10.0 mi North 8.1 mph - N/A   Clear
5:55 PM 42.8 °F 37.5 °F 26.6 °F 53% 30.19 in 10.0 mi North 9.2 mph - N/A   Clear
6:15 PM 41.0 °F 36.4 °F 26.6 °F 57% 30.20 in 10.0 mi North 6.9 mph - N/A   Clear
6:35 PM 39.2 °F 35.9 °F 26.6 °F 61% 30.20 in 10.0 mi North 4.6 mph - N/A   Unknown
6:55 PM 37.4 °F 34.9 °F 26.6 °F 65% 30.20 in 10.0 mi NNW 3.5 mph - N/A   Clear
7:15 PM 35.6 °F - 26.6 °F 70% 30.21 in 10.0 mi Calm Calm - N/A   Clear
7:35 PM 35.6 °F - 26.6 °F 70% 30.22 in 10.0 mi Calm Calm - N/A   Clear
7:55 PM 35.6 °F 32.8 °F 26.6 °F 70% 30.23 in 10.0 mi NNW 3.5 mph - N/A   Clear
8:15 PM 33.8 °F 30.8 °F 28.4 °F 81% 30.23 in 10.0 mi NNW 3.5 mph - N/A   Clear
8:35 PM 33.8 °F 29.6 °F 28.4 °F 81% 30.23 in 10.0 mi NNW 4.6 mph - N/A   Clear
8:55 PM 32.0 °F - 28.4 °F 87% 30.23 in 10.0 mi Calm Calm - N/A   Clear
9:15 PM 32.0 °F - 28.4 °F 87% 30.23 in 10.0 mi Calm Calm - N/A   Clear
9:35 PM 30.2 °F 26.7 °F 26.6 °F 86% 30.24 in 10.0 mi West 3.5 mph - N/A   Clear
9:55 PM 28.4 °F 23.3 °F 24.8 °F 86% 30.24 in 10.0 mi WNW 4.6 mph - N/A   Clear
10:15 PM 28.4 °F 23.3 °F 26.6 °F 93% 30.24 in 10.0 mi West 4.6 mph - N/A   Clear
10:35 PM 28.4 °F 22.2 °F 26.6 °F 93% 30.25 in 10.0 mi West 5.8 mph - N/A   Clear
11:35 PM 26.6 °F 18.2 °F 26.6 °F 100% 30.25 in 10.0 mi SW 8.1 mph - N/A   Clear